Torna al catalogo

INTELSAT 18

AttivoComunicazioniGEO
NORAD 37834·PAYLOAD· XX

Lanciato Oct 5, 2011 da Baikonur Cosmodrome

Loading…

TLE

AggiornatoSource: CelesTrak SupGP

Epoca: Sep 14, 2026, 00:00 UTC

1 37834C 11056A   26257.00000000  .00000142  00000+0  00000+0 0  2572
2 37834   0.0384 261.4108 0001963 269.1915   2.3884  1.00270278    19

Traccia INTELSAT 18 in tempo reale con AllMySat

Download on the App Store